Météo par heure à Kitelya

Ce jour, 5 Mars, Vendredi

Heure Température Précipitation Vent Pression Humidité
00:00 -12°C° 0 mm 3 m/s 751 mmHg 94%
01:00 -13°C° 0 mm 3 m/s 751 mmHg 94%
02:00 -13°C° 0 mm 3 m/s 752 mmHg 95%
03:00 -13°C° 0 mm 3 m/s 752 mmHg 95%
04:00 -13°C° 0 mm 3 m/s 752 mmHg 95%
05:00 -12°C° 0 mm 2 m/s 753 mmHg 95%
06:00 -12°C° 0 mm 2 m/s 753 mmHg 95%
07:00 -12°C° 0 mm 2 m/s 753 mmHg 94%
08:00 -12°C° 0 mm 2 m/s 754 mmHg 94%
09:00 -10°C° 0 mm 2 m/s 754 mmHg 91%
10:00 -10°C° 0 mm 3 m/s 754 mmHg 89%
11:00 -9°C° 0 mm 3 m/s 755 mmHg 86%
12:00 -8°C° 0 mm 3 m/s 755 mmHg 83%
13:00 -8°C° 0 mm 3 m/s 756 mmHg 80%
14:00 -7°C° 0 mm 3 m/s 756 mmHg 76%
15:00 -8°C° 0 mm 3 m/s 756 mmHg 80%
16:00 -9°C° 0 mm 3 m/s 757 mmHg 84%
17:00 -9°C° 0 mm 2 m/s 757 mmHg 87%
18:00 -10°C° 0 mm 2 m/s 758 mmHg 89%
19:00 -12°C° 0 mm 2 m/s 758 mmHg 91%
20:00 -13°C° 0 mm 2 m/s 758 mmHg 93%
21:00 -13°C° 0 mm 2 m/s 759 mmHg 93%
22:00 -13°C° 0 mm 2 m/s 759 mmHg 94%
23:00 -14°C° 0 mm 2 m/s 759 mmHg 95%

Demain, 6 Mars, Samedi

Heure Température Précipitation Vent Pression Humidité
00:00 -14°C° 0 mm 2 m/s 759 mmHg 95%
01:00 -14°C° 0 mm 2 m/s 759 mmHg 95%
02:00 -15°C° 0 mm 2 m/s 759 mmHg 95%
03:00 -15°C° 0 mm 2 m/s 759 mmHg 95%
04:00 -15°C° 0 mm 2 m/s 759 mmHg 95%
05:00 -13°C° 0 mm 1 m/s 759 mmHg 96%
06:00 -15°C° 0 mm 2 m/s 758 mmHg 96%
07:00 -14°C° 0 mm 2 m/s 758 mmHg 96%
08:00 -14°C° 0 mm 2 m/s 758 mmHg 96%
09:00 -13°C° 0 mm 3 m/s 757 mmHg 92%
10:00 -11°C° 0 mm 4 m/s 756 mmHg 89%
11:00 -10°C° 0 mm 5 m/s 755 mmHg 86%
12:00 -10°C° 0 mm 6 m/s 753 mmHg 86%
13:00 -9°C° 0 mm 6 m/s 752 mmHg 86%
14:00 -8°C° 0 mm 7 m/s 750 mmHg 86%
15:00 -8°C° 0.7 mm 8 m/s 749 mmHg 88%
16:00 -8°C° 0.7 mm 8 m/s 747 mmHg 91%
17:00 -8°C° 0.7 mm 8 m/s 745 mmHg 93%
18:00 -7°C° 1.1 mm 8 m/s 743 mmHg 94%
19:00 -7°C° 1.1 mm 7 m/s 742 mmHg 95%
20:00 -5°C° 1.1 mm 6 m/s 740 mmHg 96%
21:00 -7°C° 1 mm 7 m/s 739 mmHg 89%
22:00 -7°C° 1 mm 7 m/s 739 mmHg 83%
23:00 -8°C° 1 mm 8 m/s 739 mmHg 76%

Après-demain, 7 Mars, Dimanche

Heure Température Précipitation Vent Pression Humidité
00:00 -10°C° 0 mm 6 m/s 739 mmHg 76%
01:00 -12°C° 0 mm 5 m/s 739 mmHg 77%
02:00 -14°C° 0 mm 4 m/s 739 mmHg 78%
03:00 -14°C° 0 mm 3 m/s 739 mmHg 82%
04:00 -15°C° 0 mm 3 m/s 739 mmHg 86%
05:00 -16°C° 0 mm 3 m/s 739 mmHg 90%
06:00 -15°C° 0 mm 2 m/s 739 mmHg 90%
07:00 -15°C° 0 mm 2 m/s 739 mmHg 91%
08:00 -13°C° 0 mm 1 m/s 739 mmHg 92%
09:00 -11°C° 0 mm 1 m/s 740 mmHg 89%
10:00 -10°C° 0 mm 1 m/s 740 mmHg 86%
11:00 -8°C° 0 mm 1 m/s 740 mmHg 83%
12:00 -8°C° 0 mm 1 m/s 741 mmHg 81%
13:00 -7°C° 0 mm 1 m/s 742 mmHg 79%
14:00 -7°C° 0 mm 1 m/s 742 mmHg 76%
15:00 -9°C° 0 mm 2 m/s 743 mmHg 80%
16:00 -9°C° 0 mm 2 m/s 744 mmHg 83%
17:00 -10°C° 0 mm 2 m/s 745 mmHg 86%
18:00 -13°C° 0 mm 3 m/s 745 mmHg 87%
19:00 -15°C° 0 mm 4 m/s 746 mmHg 88%
20:00 -15°C° 0 mm 4 m/s 747 mmHg 88%
21:00 -17°C° 0 mm 5 m/s 748 mmHg 88%
22:00 -17°C° 0 mm 5 m/s 748 mmHg 87%
23:00 -17°C° 0 mm 5 m/s 749 mmHg 87%

8 Mars, Lundi

Heure Température Précipitation Vent Pression Humidité
00:00 -18°C° 0 mm 5 m/s 750 mmHg 87%
01:00 -19°C° 0 mm 5 m/s 751 mmHg 88%
02:00 -20°C° 0 mm 5 m/s 752 mmHg 88%
03:00 -21°C° 0 mm 5 m/s 752 mmHg 88%
04:00 -22°C° 0 mm 5 m/s 753 mmHg 89%
05:00 -24°C° 0 mm 5 m/s 753 mmHg 89%
06:00 -24°C° 0 mm 5 m/s 754 mmHg 89%
07:00 -24°C° 0 mm 5 m/s 755 mmHg 89%
08:00 -24°C° 0 mm 5 m/s 756 mmHg 88%
09:00 -22°C° 0 mm 5 m/s 756 mmHg 87%
10:00 -21°C° 0 mm 5 m/s 757 mmHg 86%
11:00 -20°C° 0 mm 5 m/s 757 mmHg 85%
12:00 -19°C° 0 mm 5 m/s 758 mmHg 84%
13:00 -19°C° 0 mm 5 m/s 759 mmHg 83%
14:00 -18°C° 0 mm 5 m/s 759 mmHg 81%
15:00 -17°C° 0 mm 4 m/s 760 mmHg 83%
16:00 -18°C° 0 mm 4 m/s 760 mmHg 84%
17:00 -18°C° 0 mm 4 m/s 761 mmHg 85%
18:00 -20°C° 0 mm 4 m/s 761 mmHg 87%
19:00 -21°C° 0 mm 3 m/s 762 mmHg 89%
20:00 -22°C° 0 mm 3 m/s 762 mmHg 91%
21:00 -23°C° 0 mm 3 m/s 763 mmHg 92%
22:00 -23°C° 0 mm 2 m/s 763 mmHg 93%
23:00 -24°C° 0 mm 2 m/s 764 mmHg 94%

9 Mars, Mardi

Heure Température Précipitation Vent Pression Humidité
00:00 -24°C° 0 mm 2 m/s 764 mmHg 93%
01:00 -24°C° 0 mm 2 m/s 764 mmHg 93%
02:00 -25°C° 0 mm 2 m/s 765 mmHg 93%
03:00 -22°C° 0 mm 1 m/s 765 mmHg 93%
04:00 -22°C° 0 mm 1 m/s 765 mmHg 92%
05:00 -22°C° 0 mm 1 m/s 765 mmHg 92%
06:00 -21°C° 0 mm 1 m/s 765 mmHg 91%
07:00 -20°C° 0 mm 1 m/s 765 mmHg 91%
08:00 -19°C° 0 mm 1 m/s 765 mmHg 90%
09:00 -19°C° 0 mm 2 m/s 764 mmHg 89%
10:00 -18°C° 0 mm 3 m/s 764 mmHg 89%
11:00 -16°C° 0 mm 3 m/s 764 mmHg 88%
12:00 -15°C° 0 mm 4 m/s 763 mmHg 87%
13:00 -14°C° 0 mm 5 m/s 763 mmHg 86%
14:00 -13°C° 0 mm 5 m/s 762 mmHg 84%
15:00 -12°C° 0 mm 5 m/s 762 mmHg 85%
16:00 -12°C° 0 mm 5 m/s 761 mmHg 85%
17:00 -11°C° 0 mm 5 m/s 760 mmHg 86%
18:00 -11°C° 0.2 mm 5 m/s 759 mmHg 88%
19:00 -10°C° 0.2 mm 6 m/s 759 mmHg 91%
20:00 -10°C° 0.2 mm 6 m/s 758 mmHg 93%
21:00 -9°C° 0.5 mm 6 m/s 757 mmHg 93%
22:00 -9°C° 0.5 mm 6 m/s 757 mmHg 94%
23:00 -9°C° 0.5 mm 6 m/s 756 mmHg 94%

10 Mars, Mercredi

Heure Température Précipitation Vent Pression Humidité
00:00 -8°C° 0.2 mm 5 m/s 756 mmHg 94%
01:00 -8°C° 0.2 mm 5 m/s 755 mmHg 94%
02:00 -8°C° 0.2 mm 4 m/s 755 mmHg 94%
03:00 -8°C° 0.1 mm 4 m/s 755 mmHg 95%
04:00 -7°C° 0.1 mm 3 m/s 755 mmHg 95%
05:00 -7°C° 0.1 mm 3 m/s 755 mmHg 96%
06:00 -7°C° 0 mm 3 m/s 755 mmHg 96%
07:00 -6°C° 0 mm 2 m/s 755 mmHg 96%
08:00 -6°C° 0 mm 2 m/s 755 mmHg 96%
09:00 -5°C° 0 mm 2 m/s 755 mmHg 94%
10:00 -2°C° 0 mm 1 m/s 756 mmHg 92%
11:00 -1°C° 0 mm 1 m/s 756 mmHg 90%
12:00 -1°C° 0 mm 1 m/s 756 mmHg 89%
13:00 -1°C° 0 mm 1 m/s 756 mmHg 89%
14:00 -1°C° 0 mm 1 m/s 756 mmHg 89%
15:00 -1°C° 0.1 mm 1 m/s 756 mmHg 92%
16:00 -1°C° 0.1 mm 1 m/s 756 mmHg 94%
17:00 -4°C° 0.1 mm 2 m/s 755 mmHg 96%
18:00 -4°C° 0.2 mm 2 m/s 755 mmHg 96%
19:00 -5°C° 0.2 mm 2 m/s 755 mmHg 96%
20:00 -6°C° 0.2 mm 3 m/s 755 mmHg 96%
21:00 -6°C° 0.2 mm 3 m/s 754 mmHg 96%
22:00 -7°C° 0.2 mm 3 m/s 754 mmHg 96%
23:00 -7°C° 0.2 mm 3 m/s 753 mmHg 96%
Voir plus

Nous avons besoin de votre consentement

Meteoprog et ses fournisseurs de services peuvent stocker et accéder à des données personnelles telles que des cookies, des identifiants d'appareils ou d'autres technologies similaires sur votre appareil et traiter ces données pour personnaliser le contenu et les publicités, ainsi que pour fournir des fonctionnalités de médias sociaux et analyser le trafic.

  • Stocker et/ou accéder à des informations sur votre appareil

    Des cookies, des identifiants d'appareils ou d'autres informations peuvent être stockés ou accessibles sur votre appareil aux fins indiquées ci-dessus.

  • Annonces et contenus personnalisés, mesure des annonces et des contenus, connaissance de l'audience et développement de produits

    Les annonces et le contenu peuvent être personnalisés en fonction d'un profil. D'autres données peuvent être ajoutées pour mieux personnaliser les annonces et le contenu. Les performances des publicités et du contenu peuvent être mesurées. Il est possible d'obtenir des informations sur le public qui a vu les publicités et le contenu. Ces données peuvent être utilisées pour développer ou améliorer l'expérience de l'utilisateur, les systèmes et les logiciels.

En cliquant sur "J'accepte", vous autorisez l'utilisation de cookies, des identifiants d'appareils, des balises web ou d'autres technologies similaires. Vos paramètres peuvent être modifiés dans le navigateur de votre appareil.

Dans certains cas, des intérêts légitimes peuvent être invoqués plutôt qu'un consentement. Vous pouvez en savoir plus à ce sujet dans notre Politique de confidentialité et de cookies.